Weather History for Val-d'Or, QC

Change the Weather History Date:

Friday, February 15, 2013

  Actual Average Record
Temperature  
Mean Temperature 7 °F -  
Max Temperature 13 °F 16 °F 35 °F (2005)
Min Temperature 1 °F -4 °F -32 °F (2003)
Degree Days  
Heating Degree Days 58    
Moisture  
Dew Point 12 °F    
Average Humidity 88    
Maximum Humidity 100    
Minimum Humidity 70    
Precipitation  
Precipitation 0.04 in - - ()
Sea Level Pressure  
Sea Level Pressure 29.81 in    
Wind  
Wind Speed 10 mph ()    
Max Wind Speed 21 mph    
Max Gust Speed 22 mph    
Visibility 3.3 miles    
Events Snow    
Averages and records for this station are not official NWS values.
T = Trace of Precipitation, MM = Missing Value Source: Averaged Metar Reports

Daily Weather History Graph

Daily Weather History Graph

Search for Another Location

Airport:

Trip Planner

Search our weather history database for the weather conditions in past years. The results will help you decide how hot, cold, wet, or windy it might be!

Date:

Astronomy

Feb. 15, 2013 Rise Set
Actual Time 7:17 AM EST 5:33 PM EST
Civil Twilight 6:45 AM EST 6:06 PM EST
Nautical Twilight 6:08 AM EST 6:42 PM EST
Astronomical Twilight 5:32 AM EST 7:18 PM EST
Moon 9:22 AM EST (2/15) No Moon Set
Length of Visible Light 11h 20m
Length of Day
10h 16m
Waxing Crescent, 30% of the Moon is Illuminated
Feb 15
Waxing Crescent
Feb 17
First Quarter
Feb 25
Full
Mar 4
Last Quarter
Mar 11
New

Hourly Weather History & Observations

Time (EST) Temp. Windchill Dew Point Humidity Pressure Visibility Wind Dir Wind Speed Gust Speed Precip Events Conditions
12:22 AM 26.6 °F 17.5 °F 24.8 °F 93% 29.72 in 9.0 mi South 9.2 mph - N/A Snow Light Snow
12:39 AM 26.6 °F 17.5 °F 26.6 °F 100% 29.71 in 9.0 mi SSE 9.2 mph - N/A Snow Light Snow
1:00 AM 27 °F - 25 °F 91% 29.68 in - Calm Calm - -  
1:00 AM 26.6 °F 18.2 °F 26.6 °F 100% 29.70 in 9.0 mi SSE 8.1 mph - N/A Snow Light Snow
1:25 AM 26.6 °F 18.2 °F 26.6 °F 100% 29.70 in 5.0 mi South 8.1 mph - N/A Snow Light Snow
1:42 AM 26.6 °F 18.2 °F 26.6 °F 100% 29.70 in 3.0 mi South 8.1 mph - N/A Snow Light Snow
2:00 AM 26.6 °F 19.1 °F 26.6 °F 100% 29.70 in 5.0 mi SSE 6.9 mph - N/A Snow Light Snow
2:04 AM 26.6 °F 19.1 °F 26.6 °F 100% 29.70 in 6.0 mi SSE 6.9 mph - N/A Snow Light Snow
2:21 AM 26.6 °F 18.2 °F 26.6 °F 100% 29.70 in 5.0 mi SSE 8.1 mph - N/A Snow Light Snow
2:45 AM 26.6 °F 19.1 °F 26.6 °F 100% 29.69 in 5.0 mi SSE 6.9 mph - N/A Snow Light Snow
3:25 AM 26.6 °F 20.0 °F 26.6 °F 100% 29.69 in 2.5 mi WNW 5.8 mph - N/A Snow Light Snow
3:30 AM 26.6 °F 16.8 °F 26.6 °F 100% 29.69 in 2.0 mi NW 10.4 mph - N/A Snow Light Snow
3:31 AM 26.6 °F 17.5 °F 24.8 °F 93% 29.69 in 1.8 mi NW 9.2 mph - N/A Snow Light Snow
3:37 AM 24.8 °F 13.4 °F 23.0 °F 93% 29.69 in 1.0 mi NW 12.7 mph - N/A Snow Light Snow
3:44 AM 23.0 °F 11.7 °F 21.2 °F 93% 29.70 in 1.5 mi WNW 11.5 mph 17.3 mph N/A Snow Light Snow
3:45 AM 23.0 °F 11.7 °F 21.2 °F 93% 29.70 in 2.2 mi WNW 11.5 mph 17.3 mph N/A Snow Light Snow
3:46 AM 23.0 °F 11.7 °F 21.2 °F 93% 29.70 in 3.0 mi WNW 11.5 mph 17.3 mph N/A Snow Light Snow
3:51 AM 21.2 °F 11.7 °F 19.4 °F 93% 29.70 in 5.0 mi WNW 8.1 mph 17.3 mph N/A Snow Light Snow
4:00 AM 21 °F - 19 °F 87% 29.68 in - WNW 9.2 mph - -  
4:00 AM 21.2 °F 10.9 °F 19.4 °F 93% 29.70 in 5.0 mi WNW 9.2 mph - N/A Snow Light Snow
4:07 AM 21.2 °F 10.1 °F 19.4 °F 93% 29.70 in 6.0 mi NW 10.4 mph - N/A Snow Light Snow
4:40 AM 17.6 °F 5.7 °F 17.6 °F 100% 29.71 in 5.0 mi NW 10.4 mph - N/A Snow Light Snow
5:00 AM 17.6 °F 7.3 °F 17.6 °F 100% 29.71 in 3.0 mi NNW 8.1 mph - N/A Snow Light Snow
5:01 AM 19.4 °F 7.9 °F 17.6 °F 93% 29.71 in 2.2 mi NNW 10.4 mph - N/A Snow Light Snow
5:20 AM 17.6 °F 5.7 °F 15.8 °F 93% 29.72 in 1.8 mi NNW 10.4 mph 17.3 mph N/A Snow Light Snow
6:00 AM 15.8 °F 1.4 °F 14.0 °F 93% 29.73 in 1.5 mi North 13.8 mph - N/A Snow Light Snow
7:00 AM 13 °F - 10 °F 83% 29.72 in - Calm Calm - -  
7:00 AM 14.0 °F -2.0 °F 10.4 °F 86% 29.74 in 2.5 mi North 16.1 mph - N/A Snow Light Snow
7:27 AM 12.2 °F -4.8 °F 10.4 °F 92% 29.75 in 1.5 mi North 17.3 mph - N/A Snow Light Snow
8:00 AM 12.2 °F -5.3 °F 8.6 °F 85% 29.75 in 1.5 mi North 18.4 mph - N/A Snow Light Snow
9:00 AM 10.4 °F -8.6 °F 8.6 °F 92% 29.77 in 1.5 mi North 20.7 mph - N/A Snow Light Snow
10:00 AM 10 °F - 6 °F 77% 29.77 in - NNW 15.0 mph - -  
10:00 AM 10.4 °F -7.7 °F 6.8 °F 85% 29.79 in 1.5 mi North 18.4 mph - N/A Snow Light Snow
11:00 AM 10.4 °F -7.7 °F 6.8 °F 85% 29.81 in 1.5 mi North 18.4 mph - N/A Snow Light Snow
12:00 PM 12.2 °F -3.1 °F 6.8 °F 79% 29.81 in 2.0 mi NNW 13.8 mph 19.6 mph N/A Snow Light Snow
1:00 PM 11 °F - 6 °F 70% 29.80 in - Calm Calm - -  
1:00 PM 10.4 °F -4.8 °F 6.8 °F 85% 29.82 in 2.0 mi NW 12.7 mph - N/A Snow Light Snow
2:00 PM 8.6 °F -8.3 °F 5.0 °F 85% 29.83 in 2.0 mi NNW 15.0 mph 21.9 mph N/A Snow Light Snow
3:00 PM 8.6 °F -8.9 °F 3.2 °F 79% 29.86 in 2.0 mi NNW 16.1 mph - N/A Snow Light Snow
4:00 PM 8 °F - 3 °F 71% 29.88 in - NW 10.4 mph - -  
4:00 PM 8.6 °F -4.7 °F 5.0 °F 85% 29.90 in 3.0 mi NNW 9.2 mph - N/A Snow Light Snow
5:00 PM 6.8 °F -10.7 °F 3.2 °F 85% 29.92 in 1.5 mi NW 15.0 mph 21.9 mph N/A Snow Light Snow
5:39 PM 6.8 °F -5.9 °F 3.2 °F 85% 29.95 in 5.0 mi NW 8.1 mph - N/A Snow Light Snow
6:00 PM 6.8 °F -8.6 °F 1.4 °F 79% 29.96 in 4.0 mi NW 11.5 mph 18.4 mph N/A Snow Light Snow
6:33 PM 5.0 °F -8.1 °F 3.2 °F 92% 29.97 in 2.0 mi NW 8.1 mph - N/A Snow Light Snow
7:00 PM 6 °F - 2 °F 74% 29.96 in - Calm Calm - -  
7:00 PM 6.8 °F -7.8 °F 3.2 °F 85% 29.98 in 3.0 mi NW 10.4 mph - N/A Snow Light Snow
8:00 PM 5.0 °F -10.8 °F 1.4 °F 85% 30.00 in 2.5 mi NW 11.5 mph 17.3 mph N/A Snow Light Snow
8:13 PM 5.0 °F -10.0 °F 1.4 °F 85% 30.00 in 1.5 mi NW 10.4 mph 17.3 mph N/A Snow Light Snow
9:00 PM 5.0 °F -10.0 °F 1.4 °F 85% 30.02 in 2.0 mi NW 10.4 mph 18.4 mph N/A Snow Light Snow
9:23 PM 3.2 °F -12.2 °F -0.4 °F 85% 30.03 in 3.0 mi NNW 10.4 mph - N/A Snow Light Snow
10:00 PM 2 °F - -3 °F 71% 30.01 in - NW 11.5 mph - -  
10:00 PM 3.2 °F -12.2 °F -2.2 °F 78% 30.04 in 3.0 mi NNW 10.4 mph 18.4 mph N/A Snow Light Snow
10:45 PM 3.2 °F -13.9 °F -2.2 °F 78% 30.05 in 2.5 mi NNW 12.7 mph - N/A Snow Light Snow
11:00 PM 1.4 °F -14.5 °F -2.2 °F 85% 30.05 in 2.2 mi NNW 10.4 mph - N/A Snow Light Snow
11:13 PM 1.4 °F -15.3 °F -4.0 °F 78% 30.05 in 3.0 mi NNW 11.5 mph - N/A Snow Light Snow
11:19 PM 1.4 °F -13.5 °F -4.0 °F 78% 30.06 in 6.0 mi NNW 9.2 mph - N/A Snow Light Snow